sat.trackr.live / text

‹ back to catalog

KUIPER-00108

NORAD 65146 · 2025-171Q

PAYLOAD ACTIVE UNKNOWN

§ Identity

Operator
Country
US
Launch date
2025-08-11
Launch site
AFETR
Launch vehicle
Mass (kg)
RCS (m²)

External: N2YO · Heavens-Above · Gunter

§ Orbital elements

Epoch: 2026-09-21T19:33:47.517120Z

Period
97.30 min
Inclination
51.9018°
Eccentricity
0.0000455
Mean motion
14.79929340 rev/d
Perigee alt
629.2 km
Apogee alt
629.9 km
Semi-major
7,007.7 km
B*
1.3089e-4
RAAN
13.3816°
Arg perigee
70.3194°
Mean anomaly
289.7817°
Rev number
6,190

§ Raw data

KUIPER-001081 65146U 25171Q   26264.81513330  .00000777  00000+0  13089-3 0  99962 65146  51.9018  13.3816 0000455  70.3194 289.7817 14.79929340 61904

JSON: /api/v1/satellites/65146 · /tle

For live sub-satellite position, see the globe view (requires WebGL).

§ Visibility from observer

Set your observer location to see the next 7 days of passes ≥ 10°. The values pass through the URL so the page stays shareable.

No JS? Fill the form by hand. The geolocation button needs JavaScript.